Time,TemperatureF,DewpointF,PressureIn,WindDirection,WindDirectionDegrees,WindSpeedMPH,WindSpeedGustMPH,Humidity,HourlyPrecipIn,Conditions,Clouds,dailyrainin,SoftwareType,DateUTC
2013-02-17 00:10:00,27.4,13.0,29.77,NNW,345,3.0,10.0,55,0.00,,,0.00,weatherlink.com 1.10,2013-02-17 05:10:00,
2013-02-17 00:25:00,27.2,13.0,29.76,NE,46,6.0,13.0,55,0.00,,,0.00,weatherlink.com 1.10,2013-02-17 05:25:00,
2013-02-17 00:40:00,26.9,13.0,29.74,NE,39,2.0,12.0,56,0.00,,,0.00,weatherlink.com 1.10,2013-02-17 05:40:00,
2013-02-17 00:55:00,26.7,12.0,29.71,North,11,3.0,15.0,54,0.00,,,0.00,weatherlink.com 1.10,2013-02-17 05:55:00,
2013-02-17 01:10:00,26.3,12.0,29.70,North,10,4.0,10.0,55,0.00,,,0.00,weatherlink.com 1.10,2013-02-17 06:10:00,
2013-02-17 01:25:00,26.1,11.0,29.71,NNW,348,4.0,10.0,54,0.00,,,0.00,weatherlink.com 1.10,2013-02-17 06:25:00,
2013-02-17 01:41:00,26.0,10.0,29.72,NNW,336,2.0,11.0,51,0.00,,,0.00,weatherlink.com 1.10,2013-02-17 06:41:00,
2013-02-17 01:56:00,25.9,10.0,29.71,North,5,2.0,14.0,51,0.00,,,0.00,weatherlink.com 1.10,2013-02-17 06:56:00,
2013-02-17 02:10:00,25.7,10.0,29.69,NNE,20,2.0,11.0,51,0.00,,,0.00,weatherlink.com 1.10,2013-02-17 07:10:00,
2013-02-17 02:26:00,25.6,9.0,29.68,NNW,337,5.0,13.0,50,0.00,,,0.00,weatherlink.com 1.10,2013-02-17 07:26:00,
2013-02-17 02:41:00,25.5,9.0,29.67,NE,40,5.0,15.0,50,0.00,,,0.00,weatherlink.com 1.10,2013-02-17 07:41:00,
2013-02-17 02:56:00,25.3,8.0,29.66,WNW,298,4.0,14.0,49,0.00,,,0.00,weatherlink.com 1.10,2013-02-17 07:56:00,
2013-02-17 03:11:00,25.1,8.0,29.66,NNW,332,8.0,19.0,48,0.00,,,0.00,weatherlink.com 1.10,2013-02-17 08:11:00,
2013-02-17 03:26:00,24.8,8.0,29.65,North,5,12.0,16.0,48,0.00,,,0.00,weatherlink.com 1.10,2013-02-17 08:26:00,
2013-02-17 03:41:00,24.7,7.0,29.63,North,360,10.0,17.0,48,0.00,,,0.00,weatherlink.com 1.10,2013-02-17 08:41:00,
2013-02-17 03:56:00,24.5,7.0,29.61,NNE,24,6.0,20.0,48,0.00,,,0.00,weatherlink.com 1.10,2013-02-17 08:56:00,
2013-02-17 04:11:00,24.5,7.0,29.61,NW,312,8.0,15.0,48,0.00,,,0.00,weatherlink.com 1.10,2013-02-17 09:11:00,
2013-02-17 04:26:00,24.5,8.0,29.61,NNW,329,4.0,15.0,49,0.00,,,0.00,weatherlink.com 1.10,2013-02-17 09:26:00,
2013-02-17 04:41:00,24.3,7.0,29.59,NE,37,5.0,15.0,48,0.00,,,0.00,weatherlink.com 1.10,2013-02-17 09:41:00,
2013-02-17 04:56:00,24.3,8.0,29.58,NNE,26,2.0,14.0,49,0.00,,,0.00,weatherlink.com 1.10,2013-02-17 09:56:00,
2013-02-17 05:11:00,24.2,9.0,29.57,NNE,19,5.0,15.0,52,0.00,,,0.00,weatherlink.com 1.10,2013-02-17 10:11:00,
2013-02-17 05:26:00,23.9,10.0,29.56,North,355,3.0,20.0,56,0.00,,,0.00,weatherlink.com 1.10,2013-02-17 10:26:00,
2013-02-17 05:41:00,23.5,11.0,29.54,NNE,21,8.0,20.0,60,0.00,,,0.00,weatherlink.com 1.10,2013-02-17 10:41:00,
2013-02-17 05:56:00,23.1,12.0,29.53,NNW,328,7.0,16.0,63,0.00,,,0.00,weatherlink.com 1.10,2013-02-17 10:56:00,
2013-02-17 06:11:00,22.7,14.0,29.53,North,360,5.0,18.0,70,0.00,,,0.00,weatherlink.com 1.10,2013-02-17 11:11:00,
2013-02-17 06:26:00,22.3,15.0,29.51,NE,43,8.0,16.0,73,0.00,,,0.00,weatherlink.com 1.10,2013-02-17 11:26:00,
2013-02-17 06:42:00,22.0,15.0,29.49,NNE,20,9.0,14.0,75,0.00,,,0.00,weatherlink.com 1.10,2013-02-17 11:42:00,
2013-02-17 06:56:00,21.5,17.0,29.47,NE,35,6.0,13.0,83,0.00,,,0.00,weatherlink.com 1.10,2013-02-17 11:56:00,
2013-02-17 07:11:00,20.9,18.0,29.46,NE,37,12.0,16.0,87,0.00,,,0.00,weatherlink.com 1.10,2013-02-17 12:11:00,
2013-02-17 07:27:00,20.9,18.0,29.45,NNW,336,9.0,19.0,89,0.00,,,0.00,weatherlink.com 1.10,2013-02-17 12:27:00,
2013-02-17 07:42:00,20.9,18.0,29.43,WNW,290,7.0,19.0,89,0.00,,,0.00,weatherlink.com 1.10,2013-02-17 12:42:00,
2013-02-17 07:57:00,21.1,19.0,29.43,NNW,345,6.0,15.0,90,0.00,,,0.00,weatherlink.com 1.10,2013-02-17 12:57:00,
2013-02-17 08:12:00,21.1,19.0,29.41,NNE,13,3.0,12.0,90,0.00,,,0.00,weatherlink.com 1.10,2013-02-17 13:12:00,
2013-02-17 08:27:00,20.8,18.0,29.39,North,350,3.0,16.0,90,0.00,,,0.00,weatherlink.com 1.10,2013-02-17 13:27:00,
2013-02-17 08:42:00,20.6,18.0,29.38,NNE,25,2.0,17.0,90,0.00,,,0.00,weatherlink.com 1.10,2013-02-17 13:42:00,
2013-02-17 08:57:00,20.4,18.0,29.37,NW,304,4.0,20.0,91,0.00,,,0.00,weatherlink.com 1.10,2013-02-17 13:57:00,
2013-02-17 09:12:00,20.4,18.0,29.36,North,355,4.0,19.0,91,0.00,,,0.00,weatherlink.com 1.10,2013-02-17 14:12:00,
2013-02-17 09:27:00,20.5,18.0,29.35,NNW,335,7.0,21.0,91,0.00,,,0.00,weatherlink.com 1.10,2013-02-17 14:27:00,
2013-02-17 09:42:00,20.5,18.0,29.34,NNE,19,3.0,17.0,91,0.00,,,0.00,weatherlink.com 1.10,2013-02-17 14:42:00,
2013-02-17 09:57:00,20.6,18.0,29.33,NE,34,5.0,17.0,91,0.00,,,0.00,weatherlink.com 1.10,2013-02-17 14:57:00,
2013-02-17 10:12:00,20.5,18.0,29.31,NNW,339,5.0,19.0,91,0.00,,,0.00,weatherlink.com 1.10,2013-02-17 15:12:00,
2013-02-17 10:27:00,20.4,18.0,29.31,NW,306,7.0,23.0,91,0.00,,,0.00,weatherlink.com 1.10,2013-02-17 15:27:00,
2013-02-17 10:42:00,20.7,19.0,29.30,NW,325,1.0,19.0,91,0.00,,,0.00,weatherlink.com 1.10,2013-02-17 15:42:00,
2013-02-17 10:58:00,20.8,19.0,29.30,North,355,5.0,20.0,91,0.00,,,0.00,weatherlink.com 1.10,2013-02-17 15:58:00,
2013-02-17 11:12:00,20.7,19.0,29.29,NW,325,7.0,17.0,91,0.00,,,0.00,weatherlink.com 1.10,2013-02-17 16:12:00,
2013-02-17 11:27:00,20.6,18.0,29.28,West,277,12.0,18.0,91,0.00,,,0.00,weatherlink.com 1.10,2013-02-17 16:27:00,
2013-02-17 11:42:00,20.3,18.0,29.26,NNW,346,12.0,21.0,91,0.00,,,0.00,weatherlink.com 1.10,2013-02-17 16:42:00,
2013-02-17 11:57:00,20.3,18.0,29.25,WNW,302,14.0,24.0,91,0.00,,,0.00,weatherlink.com 1.10,2013-02-17 16:57:00,
2013-02-17 12:12:00,20.3,18.0,29.24,NW,321,17.0,25.0,90,0.00,,,0.00,weatherlink.com 1.10,2013-02-17 17:12:00,
2013-02-17 12:28:00,20.4,18.0,29.23,NNE,22,5.0,19.0,91,0.00,,,0.00,weatherlink.com 1.10,2013-02-17 17:28:00,
2013-02-17 12:43:00,20.3,18.0,29.21,NW,311,8.0,19.0,90,0.00,,,0.00,weatherlink.com 1.10,2013-02-17 17:43:00,
2013-02-17 12:58:00,20.4,18.0,29.20,NW,318,17.0,28.0,90,0.00,,,0.00,weatherlink.com 1.10,2013-02-17 17:58:00,
2013-02-17 13:13:00,20.4,18.0,29.20,North,350,11.0,25.0,89,0.00,,,0.00,weatherlink.com 1.10,2013-02-17 18:13:00,
2013-02-17 13:28:00,20.5,18.0,29.20,NW,322,12.0,28.0,88,0.00,,,0.00,weatherlink.com 1.10,2013-02-17 18:28:00,
2013-02-17 13:43:00,20.9,18.0,29.19,NW,304,9.0,29.0,87,0.00,,,0.00,weatherlink.com 1.10,2013-02-17 18:43:00,
2013-02-17 13:58:00,21.1,18.0,29.19,NNE,20,6.0,23.0,86,0.00,,,0.00,weatherlink.com 1.10,2013-02-17 18:58:00,
2013-02-17 14:13:00,21.1,17.0,29.19,NW,321,16.0,25.0,85,0.00,,,0.00,weatherlink.com 1.10,2013-02-17 19:13:00,
2013-02-17 14:28:00,21.0,16.0,29.20,NE,37,9.0,33.0,82,0.00,,,0.00,weatherlink.com 1.10,2013-02-17 19:28:00,
2013-02-17 14:43:00,21.1,16.0,29.20,NNW,343,9.0,25.0,82,0.00,,,0.00,weatherlink.com 1.10,2013-02-17 19:43:00,
2013-02-17 14:58:00,21.2,16.0,29.20,North,355,5.0,19.0,81,0.00,,,0.00,weatherlink.com 1.10,2013-02-17 19:58:00,
2013-02-17 15:13:00,21.1,16.0,29.20,NW,319,3.0,19.0,80,0.00,,,0.00,weatherlink.com 1.10,2013-02-17 20:13:00,
2013-02-17 15:28:00,20.9,15.0,29.21,WNW,290,17.0,21.0,79,0.00,,,0.00,weatherlink.com 1.10,2013-02-17 20:28:00,
2013-02-17 15:44:00,20.5,15.0,29.22,NW,319,8.0,24.0,78,0.00,,,0.00,weatherlink.com 1.10,2013-02-17 20:44:00,
2013-02-17 15:58:00,20.0,14.0,29.22,NNW,335,3.0,22.0,77,0.00,,,0.00,weatherlink.com 1.10,2013-02-17 20:58:00,
2013-02-17 16:14:00,19.4,13.0,29.23,West,266,10.0,29.0,76,0.00,,,0.00,weatherlink.com 1.10,2013-02-17 21:14:00,
2013-02-17 16:28:00,19.0,12.0,29.23,NNW,335,10.0,22.0,75,0.00,,,0.00,weatherlink.com 1.10,2013-02-17 21:28:00,
2013-02-17 16:43:00,18.5,12.0,29.25,NW,313,3.0,24.0,75,0.00,,,0.00,weatherlink.com 1.10,2013-02-17 21:43:00,
2013-02-17 16:59:00,18.1,11.0,29.25,North,350,9.0,38.0,75,0.00,,,0.00,weatherlink.com 1.10,2013-02-17 21:59:00,
2013-02-17 17:13:00,18.3,11.0,29.27,NNW,340,17.0,30.0,74,0.00,,,0.00,weatherlink.com 1.10,2013-02-17 22:13:00,
2013-02-17 17:30:00,18.3,11.0,29.27,WNW,284,7.0,20.0,72,0.00,,,0.00,weatherlink.com 1.10,2013-02-17 22:30:00,
2013-02-17 17:44:00,18.5,11.0,29.28,NW,315,4.0,28.0,71,0.00,,,0.00,weatherlink.com 1.10,2013-02-17 22:44:00,
2013-02-17 17:59:00,18.1,10.0,29.29,NNW,344,8.0,19.0,70,0.00,,,0.00,weatherlink.com 1.10,2013-02-17 22:59:00,
2013-02-17 18:14:00,17.9,9.0,29.30,WNW,291,6.0,20.0,68,0.00,,,0.00,weatherlink.com 1.10,2013-02-17 23:14:00,
2013-02-17 18:29:00,17.9,8.0,29.30,North,5,4.0,21.0,66,0.00,,,0.00,weatherlink.com 1.10,2013-02-17 23:29:00,
2013-02-17 18:44:00,17.9,8.0,29.31,North,351,14.0,26.0,64,0.00,,,0.00,weatherlink.com 1.10,2013-02-17 23:44:00,
2013-02-17 18:59:00,18.1,7.0,29.31,NNW,339,7.0,21.0,63,0.00,,,0.00,weatherlink.com 1.10,2013-02-17 23:59:00,
2013-02-17 19:14:00,18.2,7.0,29.32,NW,313,5.0,21.0,62,0.00,,,0.00,weatherlink.com 1.10,2013-02-18 00:14:00,
2013-02-17 19:29:00,18.3,7.0,29.32,NNE,20,1.0,25.0,61,0.00,,,0.00,weatherlink.com 1.10,2013-02-18 00:29:00,
2013-02-17 19:45:00,18.4,7.0,29.33,WNW,294,10.0,31.0,60,0.00,,,0.00,weatherlink.com 1.10,2013-02-18 00:45:00,
2013-02-17 20:00:00,18.4,6.0,29.34,NW,318,5.0,24.0,59,0.00,,,0.00,weatherlink.com 1.10,2013-02-18 01:00:00,
2013-02-17 20:14:00,18.4,6.0,29.34,West,268,19.0,24.0,59,0.00,,,0.00,weatherlink.com 1.10,2013-02-18 01:14:00,
2013-02-17 20:30:00,18.5,6.0,29.36,North,5,10.0,19.0,58,0.00,,,0.00,weatherlink.com 1.10,2013-02-18 01:30:00,
2013-02-17 20:45:00,18.6,6.0,29.35,North,350,9.0,21.0,59,0.00,,,0.00,weatherlink.com 1.10,2013-02-18 01:45:00,
2013-02-17 21:00:00,18.7,6.0,29.36,West,280,12.0,18.0,58,0.00,,,0.00,weatherlink.com 1.10,2013-02-18 02:00:00,
2013-02-17 21:15:00,18.8,7.0,29.37,WNW,294,10.0,18.0,59,0.00,,,0.00,weatherlink.com 1.10,2013-02-18 02:15:00,
2013-02-17 21:30:00,18.8,6.0,29.37,NNW,337,12.0,15.0,58,0.00,,,0.00,weatherlink.com 1.10,2013-02-18 02:30:00,
2013-02-17 21:45:00,18.6,6.0,29.38,WNW,287,4.0,17.0,58,0.00,,,0.00,weatherlink.com 1.10,2013-02-18 02:45:00,
2013-02-17 22:00:00,18.4,6.0,29.38,West,268,6.0,24.0,58,0.00,,,0.00,weatherlink.com 1.10,2013-02-18 03:00:00,
2013-02-17 22:15:00,18.1,5.0,29.39,WNW,301,9.0,18.0,58,0.00,,,0.00,weatherlink.com 1.10,2013-02-18 03:15:00,
2013-02-17 22:30:00,18.0,5.0,29.39,NW,305,12.0,21.0,57,0.00,,,0.00,weatherlink.com 1.10,2013-02-18 03:30:00,
2013-02-17 22:45:00,17.9,5.0,29.41,WNW,295,6.0,28.0,58,0.00,,,0.00,weatherlink.com 1.10,2013-02-18 03:45:00,
2013-02-17 23:00:00,17.8,5.0,29.42,WNW,288,8.0,21.0,58,0.00,,,0.00,weatherlink.com 1.10,2013-02-18 04:00:00,
2013-02-17 23:15:00,17.6,5.0,29.43,WNW,300,3.0,22.0,58,0.00,,,0.00,weatherlink.com 1.10,2013-02-18 04:15:00,
2013-02-17 23:30:00,17.4,5.0,29.43,WNW,300,5.0,16.0,58,0.00,,,0.00,weatherlink.com 1.10,2013-02-18 04:30:00,
2013-02-17 23:46:00,17.2,5.0,29.45,NNW,339,3.0,16.0,59,0.00,,,0.00,weatherlink.com 1.10,2013-02-18 04:46:00,